Frederick, OK

5:58 PM CDT on July 26, 2016 (GMT -0500)
Frederick Municipal

Weather History for KFDR - January, 2013

Change the Weather History Date:

Tuesday, January 15, 2013

  Actual Average (KLTS) Record (KLTS)
Temperature  
Mean Temperature 32 °F -  
Max Temperature 39 °F 49 °F 68 °F (1999)
Min Temperature 24 °F 26 °F 14 °F (2009)
Degree Days  
Heating Degree Days 34    
Moisture  
Dew Point 14 °F    
Average Humidity 53    
Maximum Humidity 69    
Minimum Humidity 30    
Precipitation  
Precipitation 0.00 in - - ()
Sea Level Pressure  
Sea Level Pressure 30.25 in    
Wind  
Wind Speed 10 mph (North)    
Max Wind Speed 16 mph    
Max Gust Speed -    
Visibility 10 miles    
Events      
Averages and records for this station are not official NWS values.
T = Trace of Precipitation, MM = Missing Value Source: NWS Daily Summary

Daily Weather History Graph

Daily Weather History Graph

Search for Another Location

Airport or City:

Trip Planner

Search our weather history database for the weather conditions in past years. The results will help you decide how hot, cold, wet, or windy it might be!

Date:

Astronomy

Jan. 15, 2013 Rise Set
Actual Time 7:41 AM CST 5:49 PM CST
Civil Twilight 7:14 AM CST 6:16 PM CST
Nautical Twilight 6:43 AM CST 6:47 PM CST
Astronomical Twilight 6:13 AM CST 7:17 PM CST
Moon 10:01 AM CST (1/15) 10:25 PM CST (1/15)
Length of Visible Light 11h 02m
Length of Day
10h 07m
Waxing Crescent, 19% of the Moon is Illuminated
Jan 15
Waxing Crescent
Jan 18
First Quarter
Jan 26
Full
Feb 3
Last Quarter
Feb 10
New

Hourly Weather History & Observations

Time (CST) Temp. Windchill Dew Point Humidity Pressure Visibility Wind Dir Wind Speed Gust Speed Precip Events Conditions
12:53 AM 24.1 °F 13.7 °F 14.0 °F 65% 30.26 in 10.0 mi NNE 10.4 mph - N/A   Clear
1:53 AM 24.1 °F 13.7 °F 14.0 °F 65% 30.26 in 10.0 mi NNE 10.4 mph - N/A   Clear
2:53 AM 25.0 °F 16.3 °F 15.1 °F 66% 30.27 in 10.0 mi NNE 8.1 mph - N/A   Mostly Cloudy
3:53 AM 26.1 °F 17.6 °F 16.0 °F 66% 30.25 in 10.0 mi NE 8.1 mph - N/A   Partly Cloudy
4:53 AM 26.1 °F 16.2 °F 16.0 °F 66% 30.24 in 10.0 mi North 10.4 mph - N/A   Scattered Clouds
6:53 AM 26.1 °F 19.4 °F 17.1 °F 69% 30.25 in 10.0 mi North 5.8 mph - N/A   Overcast
7:53 AM 27.0 °F 17.3 °F 17.1 °F 66% 30.26 in 10.0 mi North 10.4 mph - N/A   Overcast
8:53 AM 28.0 °F 17.5 °F 18.0 °F 66% 30.27 in 10.0 mi North 12.7 mph - N/A   Overcast
9:53 AM 30.0 °F 20.0 °F 17.1 °F 59% 30.28 in 10.0 mi North 12.7 mph - N/A   Overcast
10:53 AM 32.0 °F 22.1 °F 16.0 °F 52% 30.27 in 10.0 mi North 13.8 mph - N/A   Overcast
11:53 AM 34.0 °F 24.6 °F 15.1 °F 46% 30.24 in 10.0 mi North 13.8 mph - N/A   Overcast
12:53 PM 37.0 °F 28.9 °F 12.0 °F 36% 30.22 in 10.0 mi North 12.7 mph - N/A   Overcast
1:53 PM 37.9 °F 28.9 °F 10.9 °F 33% 30.21 in 10.0 mi North 16.1 mph - N/A   Overcast
2:53 PM 39.0 °F 32.8 °F 10.0 °F 30% 30.20 in 10.0 mi North 9.2 mph - N/A   Overcast
3:53 PM 39.0 °F 31.4 °F 10.0 °F 30% 30.21 in 10.0 mi North 12.7 mph - N/A   Partly Cloudy
4:53 PM 37.9 °F 30.9 °F 12.0 °F 35% 30.23 in 10.0 mi North 10.4 mph - N/A   Partly Cloudy
5:53 PM 34.0 °F 27.2 °F 12.9 °F 42% 30.24 in 10.0 mi North 8.1 mph - N/A   Partly Cloudy
6:53 PM 30.0 °F 23.2 °F 12.9 °F 49% 30.25 in 10.0 mi NNW 6.9 mph - N/A   Clear
7:53 PM 28.0 °F 20.8 °F 12.9 °F 53% 30.26 in 10.0 mi North 6.9 mph - N/A   Clear
8:53 PM 28.0 °F 21.7 °F 12.9 °F 53% 30.27 in 10.0 mi NNE 5.8 mph - N/A   Clear
9:53 PM 27.0 °F 20.5 °F 12.9 °F 56% 30.26 in 10.0 mi North 5.8 mph - N/A   Clear
10:53 PM 26.1 °F 20.5 °F 14.0 °F 60% 30.25 in 10.0 mi North 4.6 mph - N/A   Clear